Jaipur International Airport

Airport
ICAO code: 
VIJP
Summary
ICAO Region: 
APAC
Territory: 
Location: 
Jaipur, Rajasthan,
Coordinates: 
Aerial View: 
26° 49' 40.964" N, 75° 48' 21.553" E
Airport WX: 
Cumulonimbus
Metar
Observation
VIJP 270230Z VRB02KT 1600 BR NSC 09/07 Q1019 BECMG 1500 BR
Station
Jaipur / Sanganer
Date/Time
2022-01-27 02:30:00
Wind speed
02 kts
Lowest cloud amount
nil significant cloud
Temperature
9°C
Dew point
7°C
Humidity
87%
QNH
1019 hPa
Weather condition
n/a

Description

Jaipur Airport is an international airport located 13 km south of the central business district of Jaipur, the capital of the state of Rajasthan, Indian.

Climatology

Humid “subtropical” climate (Köppen climate classification Cfa) - characterized by hot, humid summers and cool winters. Most precipitation occurs during the monsoon season between late June and late September. Most summer rainfall occurs during thunderstorms. During winter, overnight radiation fog is often a problem.

Runways

Designator Length Width Surface Rops
15/33 1592 45 ASP No/No
9/27 2797 45 PEM Yes/Yes
Airport map: 
Aerial View: 

Accidents and Serious Incidents at or in the vicinity of VIJP

SKYbrary Partners:

Safety knowledge contributed by: